Location: Newark
(54.6833°N, 25.2833°E)
Time: 02:32:27
(UTC+00:00)

Altair - Pass Details

Date: 12 November 2019
Orbit: 1502 x 1682 km, 47.2° (Epoch: 05 December)

Event Time Altitude Azimuth Distance (km) Brightness Sun altitude
Rises 07:00:09 0° 269° (W) 4,653 9.6 7.9°
Reaches altitude 10° 07:03:14 10° 264° (W) 3,683 9.2 8.2°
Maximum altitude 07:12:06 52° 192° (SSW) 1,864 8.5 9.1°
Drops below altitude 10° 07:21:16 10° 120° (ESE) 3,801 11.2 9.9°
Sets 07:24:30 0° 116° (ESE) 4,811 11.4 10.2°
